NIMBUS 2 DEB, 28613

Orbit data source: Space-Track

NIMBUS 2 DEB, 28613 is space debris in SSO originally from a launch on Sun, 15 May 1966 UTC launched from the Air Force Western Test Range (AFWTR). Debris objects in space refer to the collection of defunct objects orbiting the Earth. Examples of debris include non-operational satellites, rocket bodies, and fragments generated from explosions, collisions, or faulty payload assembly.

Loading next visibility...
Identifier
28613, 1966-040AC
Orbit
SSO
Country
Flag of USUS
Related business
Manufacturer
Unknown
Mission
Spacecraft
Bus & Motor
Unknown
Mass
Unknown
Launch date (UTC)
1966-05-15 (60 years ago)
Launch vehicle
Unknown
Launch site
Air Force Western Test Range (AFWTR)
Object type
Payload
Rocket body
Debris
Shape & HBR
Unknown shape, 0.1 m
Radar Cross Section
Small (<0.1 m²)

Expand to show TLE details & history
Last TLE update: 1 day ago

TLE from 1 day ago
0 NIMBUS 2 DEB
1 28613U 66040AC  26124.93411985  .00002672  00000-0  29461-2 0  9992
2 28613 100.3659 283.3272 0037343 303.2387 211.1587 13.72756919637437
Epoch: 2026-05-04T22:25Z
TLE epoch observation values (Epoch: 2026-05-04T22:25:07.955Z)
Latitude
25.40275°
Longitude
-90.81457°
Altitude
1,016.232 km
Speed
7.334 km/s
True Right ascension
07h 13m 08s
True Declination
25° 16' 28"
Sunlit
Object was in daylight at epoch
Visualization orbit readout
Latitude
Unknown
Longitude
Unknown
Altitude
Unknown
Speed
Unknown
Apparent Right ascension
Unknown
Apparent Declination
Unknown
Sunlit
N/A
Visualization observer readout
Local Sidereal Time
15:31:28
Azimuth
Unknown
Elevation
Unknown
Doppler factor
Unknown
Orbital elements
Apogee altitude
1,014.5 km
Perigee altitude
959.493 km
Semi-major axis
7,365.134 km
Eccentricity
0.00373
Inclination
100.3659°
RAAN
283.3272°
Arg. of periapsis
303.2387°
True anomaly
210.93817°
Mean anomaly
211.1587°
Eccentric anomaly
211.04835°
Mean motion
3.43378 °/min
Orbital period
104.84 mins
BSTAR
0.0029461
Loading maneuver chart data...
Computing Atmospheric mass density...
Loading historical data...
Loading historical data...
Loading historical data...
Loading historical data...
Loading historical data...
Loading historical data...
Loading historical data...

Documentation

Showing up to 5 results
|